Regional Weather Roundup
Issued by NWS

Home | Current Version | Previous Version | Graphics & Text | Print | Product List | Glossary Off
Versions: 1 2 3 4 5 6 7 8 9 10 11 12 13 14 15 16 17 18 19 20 21 22 23 24 25 26 27 28 29 30 31 32 33 34 35 36 37 38 39 40 41 42 43 44 45 46 47 48 49 50

624
ASUS43 KTOP 030008
RWRKS

WEATHER ROUNDUP FOR KANSAS
NATIONAL WEATHER SERVICE GOODLAND KS
600 PM CST FRI DEC 02 2016

NOTE:  "FAIR" INDICATES FEW OR NO CLOUDS BELOW 12,000 FEET WITH NO
SIGNIFICANT WEATHER AND/OR OBSTRUCTIONS TO VISIBILITY.

KSZ001>006-013>018-027>032-041>047-030100-
NORTHWEST KANSAS

CITY           SKY/WX    TMP DP  RH WIND       PRES   REMARKS
GOODLAND       CLOUDY    33  14  45 NE6       30.21R
6HR MIN TEMP:  32; 6HR MAX TEMP:  44;

HAYS           CLEAR     35  21  56 N9        30.26R
HILL CITY      CLOUDY    35  20  54 E5        30.26R
6HR MIN TEMP:  35; 6HR MAX TEMP:  47;

RUSSELL        CLEAR     35  21  56 NE9       30.25R
6HR MIN TEMP:  34; 6HR MAX TEMP:  49;

$$

KSZ061>065-074>080-084>089-030100-
SOUTHWEST KANSAS

CITY           SKY/WX    TMP DP  RH WIND       PRES   REMARKS
DODGE CITY     CLOUDY    40  13  33 NE8       30.20R
6HR MIN TEMP:  38; 6HR MAX TEMP:  52;

ELKHART          N/A     42  12  29 NE5         N/A
GARDEN CITY    CLOUDY    42  13  30 NE8       30.19S
6HR MIN TEMP:  41; 6HR MAX TEMP:  51;

LIBERAL        CLOUDY    46  12  25 NE6       30.18R
PRATT          CLEAR     37  18  46 NE7       30.21S
6HR MIN TEMP:  37; 6HR MAX TEMP:  48;

$$

KSZ066>073-081>083-090>101-030100-
SOUTHEAST KANSAS

CITY           SKY/WX    TMP DP  RH WIND       PRES   REMARKS
CHANUTE        PTCLDY    47  25  42 NE8       30.26R
6HR MIN TEMP:  47; 6HR MAX TEMP:  58;

COFFEYVILLE    PTCLDY    48  29  47 NE7       30.24R
6HR MIN TEMP:  48; 6HR MAX TEMP:  59;

HUTCHINSON     CLEAR     36  23  59 NE5       30.24S
6HR MIN TEMP:  35; 6HR MAX TEMP:  53;

MEDICINE LODGE   N/A     42  22  44 NE8       30.20S
NEWTON         CLEAR     43  20  39 NE6       30.25R
PARSONS        PTCLDY    47  26  44 NE3       30.25R
6HR MIN TEMP:  47; 6HR MAX TEMP:  58;

WICHITA INTL   PTCLDY    45  21  38 NE10      30.23R
6HR MIN TEMP:  45; 6HR MAX TEMP:  55;

WICHITA JABRA  CLEAR     42  22  44 NE8       30.24R
6HR MIN TEMP:  42; 6HR MAX TEMP:  54;

WICHITA MCCONL CLEAR     44  21  39 NE8       30.24R
WINFIELD       PTCLDY    48  21  34 NE7       30.22S
6HR MIN TEMP:  48; 6HR MAX TEMP:  57;

$$

KSZ007>012-019>026-033>040-048>060-102>105-030100-
NORTHEAST KANSAS

CITY           SKY/WX    TMP DP  RH WIND       PRES   REMARKS
CONCORDIA      CLEAR     37  25  61 CALM      30.29R
6HR MIN TEMP:  37; 6HR MAX TEMP:  46;

EMPORIA        CLEAR     42  23  46 NE7       30.26R
6HR MIN TEMP:  42; 6HR MAX TEMP:  51;

LAWRENCE       CLEAR     34  26  72 NE5       30.31R
6HR MIN TEMP:  34; 6HR MAX TEMP:  50;

MANHATTAN      CLEAR     36  25  64 CALM      30.29R
6HR MIN TEMP:  36; 6HR MAX TEMP:  50;

MARYSVILLE     CLEAR     34  27  75 CALM      30.30R
OLATHE IND     CLEAR     37  26  64 N6        30.30R
6HR MIN TEMP:  36; 6HR MAX TEMP:  50;

OLATHE EXE     CLEAR     43  25  49 NE5       30.29R
6HR MIN TEMP:  43; 6HR MAX TEMP:  50;

SALINA         CLEAR     44  23  43 NE3       30.27S
6HR MIN TEMP:  41; 6HR MAX TEMP:  51;

TOPEKA BILLARD CLEAR     39  26  59 N7        30.30R
6HR MIN TEMP:  39; 6HR MAX TEMP:  51;

TOPEKA FORBES  CLEAR     37  26  64 NE3       30.30R
6HR MIN TEMP:  37; 6HR MAX TEMP:  52;

$$




USA.gov is the U.S. government's official web portal to all federal, state and local government web resources and services.